Find Local Weather

World > North America > United States > New Hampshire

Boscawen, New Hampshire Regional Weather

Lat: 43.31N, Lon: 71.62W
Wx Zone: NHZ008
Warning FLW WEATHER ALERT - (More Info. Click Here) Warning
Feedback

Boscawen, NH Regional Weather

Expires:201905192100;;130906
ASUS41 KGYX 192010
RWRGYX
WEATHER ROUNDUP FOR MAINE AND NEW HAMPSHIRE
NATIONAL WEATHER SERVICE GRAY ME
400 PM EDT SUN MAY 19 2019


NHZ002-005-008-009-011-012-014-192100-
NEW HAMPSHIRE
  
CITY           SKY/WX    TMP DP  RH WIND       PRES   REMARKS
PORTSMOUTH     PTSUNNY   71  54  55 SW10      29.95F                  
ROCHESTER      FAIR      73  55  53 S8        29.95F                  
NASHUA         FAIR      73  58  59 VRB6      29.96F                  
MANCHESTER     FAIR      73  55  53 S14       29.94F                  
CONCORD        FAIR      73  56  54 S13       29.94F                  
LACONIA        PTSUNNY   68  55  63 NE6       29.94F                  
PLYMOUTH       FAIR      73  55  52 E7        29.91F                  
BERLIN         PTSUNNY   60  48  64 N9        29.95F                  
WHITEFIELD     FAIR      73  51  46 NE7       29.89F                  
JAFFREY        FAIR      75  57  53 SW13G21   29.97F                  
KEENE          FAIR      76  60  57 S12       29.93F                  
LEBANON        FAIR      80  60  50 S13       29.87F                  
MT WASHINGTON  FOG       48  48 100 W36G55      N/A  VSB 0            
$$


SKY/WX - Weather  TMP - Temperature  DP - Dew Point  RH - Relative Humidity
WIND - Wind Direction/Speed PRES - Barometric Pressure VSB - Visibility
WCI - Wind Chill Index E13G22 Wind - East Wind 13 mph/Gusts of 22 mph